星链-35273(STARLINK-35273)

导读

STARLINK-35273是美国太空探索技术公司Starlink星链星座的一颗运营中卫星,于2025年9月26日,在美国加利福尼亚州空军西部试验场发射升空。该卫星NORAD编号为65805,国际空间站编号为2025-218Q,轨道倾角97.602°,平均轨道高度约556.6千米,轨道周期95.639分钟,目前运行正常,属于星链低轨互联网卫星星座组网的一部分。

Basic Information
目录编号:
65805
目录名称:
STARLINK-35273
国际标识:
2025-218Q
轨道中心:
EARTH
卫星名称:
星链-35273
卫星全名:
星链-35273(STARLINK-35273)
卫星状态:
在轨 (已飞行344 天)
发射日期:
2025-09-26 UTC
国别 :
美国 (US)
星等 :
--
Orbit Information
数据来源 国际轨道数据
星历时间: 2026-09-05T14:00:02+0800
9小时前
查看轨道信息
半长轴: 6843.635km
偏心率: 0.000194
轨道倾角: 97.286°
近地点辐角 99.833°
升交点赤经 105.844°
平近点角 23.673°
近地点: 464.17km
远地点: 466.826km
周期: 93.905分钟
每日圈数: 15.334604
Detailed Information
固有亮度:
5
最大亮度:
2.5
卫星平台:
Starlink V1.0
覆盖范围:
全球
运营商:
太空探索技术公司
运营商所在国:
美国
制造商(研发单位):
太空探索技术公司
制造商所在国:
美国
使用方式:
暂无
Satellite Introduction
Starlink 计划是 SpaceX 推出的全球卫星互联网项目,通过发射低轨道卫星,为全球尤其是偏远地区提供高速、低延迟的互联网服务。自 2019 年起,Starlink 已部署数千颗卫星,旨在缩小全球数字鸿沟,推动互联网普及。该项目还为军事、航空等行业提供通信支持,带来广泛经济效益。
2D Orbit Map
3D Orbit Map
Orbit Altitude Analysis Chart
Orbit Inclination Analysis Chart
Orbit Comprehensive Analysis Chart
View Comprehensive Chart
Conjunction Data List
Event ID Objects TCA Miss Dist (km) Collision Risk Probability Collision Risk Index (CRI) Action
CDM_260906-144606-580506-839421
2026-09-06T
14:46:11+0000
0.232 km
中距离
5.870774E-4 高风险 0.9
CDM_260906-161906-580506-913021
2026-09-06T
16:19:01+0000
0.448 km
远距离
1.047588E-4 高风险 0.75
CDM_260906-153206-580506-913021
2026-09-06T
15:32:01+0000
0.635 km
远距离
3.979747E-5 中风险 0.67
CDM_260906-122506-580506-839421
2026-09-06T
12:25:14+0000
0.953 km
远距离
2.316454E-5 中风险 0.62
CDM_260905-131405-185806-580521
2026-09-05T
13:14:37+0000
1.347 km
极远距离
9.601264E-6 低风险 0.55
CDM_260903-054406-580506-959024
2026-09-03T
05:44:01+0000
1.620 km
极远距离
5.188117E-6 低风险 0.49
CDM_260831-164206-580506-630121
2026-08-31T
16:42:52+0000
1.436 km
极远距离
4.51325E-6 低风险 0.48
CDM_260905-122705-185806-580521
2026-09-05T
12:27:41+0000
2.098 km
极远距离
2.534547E-6 低风险 0.43
CDM_260906-110705-199006-580521
2026-09-06T
11:07:40+0000
2.183 km
极远距离
2.308794E-6 低风险 0.42
CDM_260906-090406-445406-580521
2026-09-06T
09:04:22+0000
2.578 km
极远距离
1.601295E-6 低风险 0.39